TimePST,TemperatureF,Dew PointF,Humidity,Sea Level PressureIn,VisibilityMPH,Wind Direction,Wind SpeedMPH,Gust SpeedMPH,PrecipitationIn,Events,Conditions,WindDirDegrees,DateUTC
12:15 AM,51.8,51.8,100,29.72,7.0,SE,10.4,-,0.04,,Unknown,140,2012-11-17 08:15:00
12:35 AM,51.8,51.8,100,29.72,9.0,SSE,8.1,-,0.05,,Unknown,150,2012-11-17 08:35:00
12:55 AM,51.8,50.0,94,29.71,8.0,SE,8.1,-,0.05,,Unknown,140,2012-11-17 08:55:00
1:15 AM,51.8,51.8,100,29.70,10.0,SE,6.9,-,N/A,,Unknown,140,2012-11-17 09:15:00
1:35 AM,51.8,51.8,100,29.70,10.0,SE,9.2,-,N/A,,Unknown,140,2012-11-17 09:35:00
1:55 AM,53.6,51.8,94,29.69,10.0,SSE,5.8,-,N/A,,Unknown,150,2012-11-17 09:55:00
2:15 AM,53.6,51.8,94,29.69,10.0,SSE,6.9,-,N/A,,Unknown,150,2012-11-17 10:15:00
2:35 AM,53.6,53.6,100,29.68,10.0,SE,9.2,-,N/A,,Unknown,140,2012-11-17 10:35:00
2:55 AM,53.6,53.6,100,29.67,10.0,SSE,9.2,-,N/A,,Unknown,150,2012-11-17 10:55:00
3:15 AM,53.6,53.6,100,29.67,5.0,SSE,6.9,-,0.01,,Unknown,150,2012-11-17 11:15:00
3:35 AM,53.6,53.6,100,29.66,6.0,SSE,6.9,-,0.04,,Unknown,150,2012-11-17 11:35:00
3:55 AM,53.6,53.6,100,29.65,7.0,South,6.9,-,0.05,,Unknown,170,2012-11-17 11:55:00
4:15 AM,53.6,53.6,100,29.64,5.0,SE,5.8,-,0.10,,Unknown,140,2012-11-17 12:15:00
4:35 AM,53.6,51.8,94,29.64,6.0,SSE,5.8,-,0.20,,Unknown,150,2012-11-17 12:35:00
4:55 AM,53.6,51.8,94,29.63,5.0,SSE,4.6,-,0.24,,Unknown,150,2012-11-17 12:55:00
5:15 AM,53.6,51.8,94,29.63,5.0,SSE,8.1,-,0.02,,Unknown,150,2012-11-17 13:15:00
5:35 AM,53.6,53.6,100,29.63,2.5,South,6.9,-,0.03,,Unknown,170,2012-11-17 13:35:00
5:55 AM,53.6,53.6,100,29.63,5.0,South,3.5,-,0.09,,Unknown,170,2012-11-17 13:55:00
6:15 AM,55.4,55.4,100,29.63,4.0,SW,12.7,20.7,0.01,,Unknown,230,2012-11-17 14:15:00
6:35 AM,53.6,51.8,94,29.63,7.0,SW,15.0,20.7,0.04,,Unknown,220,2012-11-17 14:35:00
6:55 AM,53.6,51.8,94,29.63,9.0,SSW,13.8,19.6,0.06,,Unknown,200,2012-11-17 14:55:00
7:15 AM,53.6,51.8,94,29.63,10.0,South,12.7,18.4,N/A,,Mostly Cloudy,190,2012-11-17 15:15:00
7:35 AM,53.6,51.8,94,29.64,10.0,South,16.1,25.3,N/A,,Mostly Cloudy,190,2012-11-17 15:35:00
7:55 AM,53.6,51.8,94,29.64,10.0,South,13.8,20.7,N/A,,Mostly Cloudy,180,2012-11-17 15:55:00
8:15 AM,53.6,51.8,94,29.64,10.0,South,11.5,19.6,N/A,,Mostly Cloudy,170,2012-11-17 16:15:00
8:35 AM,53.6,51.8,94,29.64,10.0,SSE,9.2,-,N/A,,Overcast,150,2012-11-17 16:35:00
8:55 AM,53.6,51.8,94,29.64,3.0,SSE,8.1,-,0.01,,Overcast,160,2012-11-17 16:55:00
9:15 AM,53.6,53.6,100,29.64,2.5,South,8.1,-,0.01,,Overcast,170,2012-11-17 17:15:00
9:35 AM,50.0,48.2,94,29.67,2.5,WNW,15.0,21.9,0.09,,Overcast,290,2012-11-17 17:35:00
9:55 AM,48.2,48.2,100,29.69,1.5,West,21.9,31.1,0.13,,Overcast,280,2012-11-17 17:55:00
10:15 AM,48.2,46.4,93,29.71,1.5,WNW,20.7,-,0.03,,Overcast,290,2012-11-17 18:15:00
10:35 AM,48.2,46.4,93,29.72,3.0,West,16.1,21.9,0.04,,Overcast,280,2012-11-17 18:35:00
10:55 AM,48.2,46.4,93,29.73,3.0,West,13.8,-,0.06,,Overcast,280,2012-11-17 18:55:00
11:15 AM,48.2,46.4,93,29.73,7.0,West,13.8,-,0.03,,Overcast,280,2012-11-17 19:15:00
11:35 AM,48.2,46.4,93,29.74,10.0,West,8.1,-,0.05,,Overcast,270,2012-11-17 19:35:00
11:55 AM,48.2,46.4,93,29.75,5.0,WSW,5.8,-,0.10,,Overcast,240,2012-11-17 19:55:00
12:15 PM,46.4,44.6,93,29.75,4.0,SSW,6.9,-,0.06,,Overcast,210,2012-11-17 20:15:00
12:35 PM,46.4,44.6,93,29.76,4.0,South,8.1,-,0.12,,Overcast,190,2012-11-17 20:35:00
12:55 PM,46.4,44.6,93,29.74,3.0,SE,12.7,-,0.19,,Overcast,140,2012-11-17 20:55:00
1:15 PM,46.4,44.6,93,29.73,3.0,SE,18.4,-,0.03,,Overcast,140,2012-11-17 21:15:00
1:35 PM,46.4,44.6,93,29.74,3.0,SSE,16.1,-,0.03,,Overcast,150,2012-11-17 21:35:00
1:55 PM,46.4,44.6,93,29.74,10.0,SSE,12.7,-,0.03,,Overcast,150,2012-11-17 21:55:00
2:15 PM,44.6,44.6,100,29.73,10.0,SSE,11.5,16.1,N/A,,Overcast,160,2012-11-17 22:15:00
2:35 PM,46.4,44.6,93,29.73,10.0,SSE,10.4,-,N/A,,Overcast,150,2012-11-17 22:35:00
2:55 PM,46.4,44.6,93,29.74,10.0,SSE,13.8,-,0.01,,Overcast,150,2012-11-17 22:55:00
3:15 PM,46.4,44.6,93,29.74,10.0,SE,13.8,20.7,N/A,,Overcast,140,2012-11-17 23:15:00
3:35 PM,46.4,44.6,93,29.76,10.0,SSE,13.8,-,N/A,,Overcast,160,2012-11-17 23:35:00
3:55 PM,46.4,44.6,93,29.76,10.0,SSE,12.7,-,N/A,,Overcast,150,2012-11-17 23:55:00
4:15 PM,46.4,44.6,93,29.76,10.0,SSE,11.5,-,N/A,,Mostly Cloudy,150,2012-11-18 00:15:00
4:35 PM,46.4,44.6,93,29.77,10.0,SSE,11.5,-,N/A,,Mostly Cloudy,150,2012-11-18 00:35:00
4:55 PM,44.6,44.6,100,29.78,10.0,SE,10.4,-,N/A,,Scattered Clouds,140,2012-11-18 00:55:00
5:15 PM,44.6,44.6,100,29.78,10.0,SSE,9.2,-,N/A,,Scattered Clouds,150,2012-11-18 01:15:00
5:35 PM,44.6,44.6,100,29.79,10.0,SE,9.2,-,N/A,,Scattered Clouds,140,2012-11-18 01:35:00
5:55 PM,44.6,44.6,100,29.80,10.0,SSE,10.4,-,N/A,,Scattered Clouds,150,2012-11-18 01:55:00
6:15 PM,44.6,42.8,93,29.80,7.0,SSE,9.2,-,0.02,,Overcast,150,2012-11-18 02:15:00
6:35 PM,44.6,42.8,93,29.80,9.0,SE,6.9,-,0.03,,Overcast,140,2012-11-18 02:35:00
6:55 PM,44.6,42.8,93,29.81,10.0,SSE,6.9,-,0.03,,Mostly Cloudy,160,2012-11-18 02:55:00
7:15 PM,44.6,44.6,100,29.81,10.0,SE,8.1,-,N/A,,Mostly Cloudy,140,2012-11-18 03:15:00
7:35 PM,44.6,44.6,100,29.82,10.0,SSE,8.1,-,N/A,,Mostly Cloudy,150,2012-11-18 03:35:00
7:55 PM,44.6,44.6,100,29.82,10.0,SSE,6.9,-,N/A,,Mostly Cloudy,150,2012-11-18 03:55:00
8:15 PM,46.4,44.6,93,29.84,10.0,South,11.5,16.1,N/A,,Unknown,170,2012-11-18 04:15:00
8:35 PM,44.6,42.8,93,29.84,10.0,SSE,11.5,-,N/A,,Unknown,150,2012-11-18 04:35:00
8:55 PM,46.4,44.6,93,29.84,10.0,SSE,9.2,-,N/A,,Scattered Clouds,150,2012-11-18 04:55:00
9:15 PM,46.4,44.6,93,29.84,10.0,SSE,9.2,-,N/A,,Scattered Clouds,150,2012-11-18 05:15:00
9:35 PM,46.4,44.6,93,29.86,8.0,SSE,5.8,-,0.01,,Scattered Clouds,160,2012-11-18 05:35:00
9:55 PM,46.4,44.6,93,29.86,10.0,SE,8.1,-,0.02,,Scattered Clouds,140,2012-11-18 05:55:00
10:15 PM,46.4,46.4,100,29.85,10.0,SE,10.4,-,N/A,,Unknown,140,2012-11-18 06:15:00
10:35 PM,44.6,42.8,93,29.86,10.0,SSE,9.2,-,N/A,,Unknown,150,2012-11-18 06:35:00
10:55 PM,46.4,44.6,93,29.85,10.0,SE,11.5,-,N/A,,Unknown,140,2012-11-18 06:55:00
11:15 PM,46.4,44.6,93,29.86,10.0,SSE,8.1,-,N/A,,Unknown,150,2012-11-18 07:15:00
11:55 PM,46.4,44.6,93,29.87,10.0,SSE,6.9,-,N/A,,Unknown,150,2012-11-18 07:55:00